#timestamp,LO_Frequency,Hit,StdDev 
1629882015.2,286046998.5,N
1629882035.1,286046998.6,N
1629882036.0,286046998.6,N
1629882055.8,286046998.8,N
1629882075.6,286046999.0,N
1629882095.5,286046998.9,N
1629882115.3,286046996.5,N
1629882135.1,286046999.2,N
1629882155.9,286046999.6,N
1629882175.7,286046998.7,N
1629882195.6,286046999.0,N
1629882215.4,286046998.4,N
1629882235.2,286046999.4,N
1629882255.1,286046996.7,N
1629882256.0,286046996.7,N
1629882275.8,286046999.0,N
1629882295.6,286046999.1,N
1629882315.5,286046999.2,N
1629882335.3,286046998.4,N
1629882355.1,286046999.1,N
1629882375.9,286046999.6,N
1629882395.7,286046996.9,N
1629882415.6,286046997.0,N
1629882435.4,286046999.1,N
1629882455.2,286046998.7,N
1629882475.1,286046998.5,N
1629882476.0,286046998.5,N
1629882495.8,286046998.3,N
1629882515.6,286047001.0,N
1629882535.5,286046998.8,N
1629882555.3,286046999.3,N
1629882575.2,286047000.9,N
1629882595.9,286046998.4,N
1629882615.7,286047000.6,N
1629882635.6,286047000.5,N
1629882655.4,286046999.8,N
1629882675.2,286046999.8,N
1629882695.1,286047000.6,N
1629882696.0,286047000.6,N
1629882715.8,286047000.1,N
1629882735.7,286047000.3,N
1629882755.5,286047000.3,N
1629882775.3,286046999.7,N
1629882795.2,286047002.4,N
1629882815.0,286047002.8,N
1629882815.9,286047002.8,N
1629882835.7,286047001.9,N
1629882855.6,286047001.8,N
1629882875.4,286047001.9,N
1629882895.3,286047002.3,N
1629882915.1,286046999.9,N
1629882916.0,286046999.9,N
1629882935.8,286047000.2,N
1629882955.7,286047002.7,N
1629882975.5,286047000.1,N
1629882995.3,286047000.5,N
1629883015.2,286046998.9,N
1629883035.0,286046999.4,N
1629883035.9,286046999.4,N
1629883055.8,286046998.9,N
1629883075.6,286046998.5,N
1629883095.4,286046998.6,N
1629883115.3,286046998.9,N
1629883135.1,286046998.4,N
1629883155.9,286046998.1,N
1629883175.7,286047000.6,N
1629883195.5,286047000.8,N
1629883215.4,286047001.1,N
1629883235.2,286046998.2,N
1629883255.0,286046998.9,N
1629883255.9,286046998.9,N
1629883275.8,286046999.0,N
1629883295.6,286046999.2,N
1629883315.5,286046996.6,N
1629883335.3,286046996.5,N
1629883355.1,286046998.7,N
1629883375.9,286046999.3,N
1629883395.7,286046999.1,N
1629883415.5,286046997.1,N
1629883435.4,286046997.8,N
1629883455.2,286046995.0,Y
1629883475.1,286046995.0,P
1629883476.0,286046995.0,N
1629883495.8,286046995.4,N
1629883515.6,286046999.6,N
1629883535.5,286046997.3,N
1629883555.3,286046997.6,N
1629883575.1,286046997.5,N
1629883595.9,286046997.5,N
1629883615.7,286046997.4,N
1629883635.6,286046999.0,N
1629883655.4,286047001.1,N
1629883675.2,286046998.6,N
1629883695.1,286047001.0,N
1629883696.0,286047001.0,N
1629883715.8,286046999.0,N
1629883735.6,286047001.1,N
1629883755.5,286046998.7,N
1629883775.3,286046998.5,N
1629883795.2,286046998.3,N
1629883815.9,286046999.9,N
1629883835.7,286047000.6,N
1629883855.6,286046998.6,N
1629883875.4,286047000.8,N
1629883895.2,286047000.7,N
1629883915.1,286047000.9,N
1629883916.0,286047000.9,N
1629883935.8,286046999.1,N
1629883955.7,286046999.6,N
1629883975.5,286046997.7,N
1629883995.3,286046997.3,N
1629884015.2,286046996.5,N
1629884035.9,286046996.5,N
1629884055.7,286046997.6,N
1629884075.6,286046997.9,N
1629884095.4,286046997.6,N
1629884115.3,286046995.0,Y
1629884135.1,286046997.0,P
1629884136.0,286046997.0,P
1629884155.8,286046997.0,P
1629884175.7,286047000.8,N
1629884195.5,286047000.9,N
1629884215.3,286047001.2,N
1629884235.2,286047000.4,N
1629884255.0,286047002.8,N
1629884255.9,286047002.8,N
1629884275.8,286047001.5,N
1629884295.6,286047002.2,N
1629884315.4,286047002.5,N
1629884335.3,286047001.9,N
1629884355.1,286047000.2,N
1629884375.9,286046999.9,N
1629884395.7,286046999.7,N
1629884415.5,286047000.6,N
1629884435.4,286047000.3,N
1629884455.2,286046999.7,N
1629884475.0,286047000.3,N
1629884475.9,286047000.3,N
1629884495.8,286047000.5,N
1629884515.6,286046999.9,N
1629884535.5,286047001.9,N
1629884555.3,286047002.0,N
1629884575.1,286047000.0,N
1629884595.9,286047000.0,N
1629884615.7,286047000.7,N
1629884635.6,286046998.2,N
1629884655.4,286046998.2,N
1629884675.2,286047001.2,N
1629884695.1,286046998.1,N
1629884696.0,286046998.1,N
1629884715.8,286046998.1,N
1629884735.7,286047002.5,N
1629884755.5,286047001.8,N
1629884775.3,286047001.5,N
1629884795.2,286047004.1,N
1629884815.0,286047001.5,N
1629884815.9,286047001.5,N
1629884835.8,286047002.6,N
1629884855.6,286047002.2,N
1629884875.4,286047002.4,N
1629884895.3,286046999.9,N
1629884915.1,286047000.6,N
1629884935.9,286047000.5,N
1629884955.7,286047001.1,N
1629884975.5,286047000.5,N
1629884995.4,286046999.9,N
1629885015.2,286047000.0,N
1629885035.0,286047000.5,N
1629885035.9,286047000.5,N
1629885055.8,286047000.3,N
1629885075.6,286047002.3,N
1629885095.5,286047000.2,N
1629885115.3,286047000.7,N
1629885135.1,286047001.2,N
1629885155.9,286047002.6,N
1629885175.7,286047002.7,N
1629885195.5,286047002.0,N
1629885215.4,286047002.4,N
1629885235.2,286047002.4,N
1629885255.1,286047002.1,N
1629885256.0,286047002.1,N
1629885275.8,286047001.4,N
1629885295.6,286047001.9,N
1629885315.5,286047002.8,N
1629885335.3,286047002.2,N
1629885355.1,286047001.6,N
1629885375.9,286047001.7,N
1629885395.7,286047003.8,Y
1629885415.6,286047002.3,P
1629885435.4,286046999.7,N
1629885455.2,286047002.8,N
1629885475.1,286047001.2,N
1629885476.0,286047001.2,N
1629885495.8,286046999.2,N
1629885515.6,286046998.7,N
1629885535.5,286046998.9,N
1629885555.3,286046998.9,N
1629885575.2,286046998.6,N
1629885595.9,286046999.5,N
